星链-36118(STARLINK-36118)

导读

STARLINK-36118是美国SpaceX星链星座的成员卫星,于2025年12月10日发射升空,属于星链星座低轨互联网星座的组网补充卫星。星链系统通过部署数千颗低轨卫星,为全球提供高速低延迟的宽带互联网服务,该卫星入轨后将进一步扩充星链星座的服务覆盖容量与网络稳定性。

Basic Information
目录编号:
67009
目录名称:
STARLINK-36118
国际标识:
2025-293G
轨道中心:
EARTH
卫星名称:
星链-36118
卫星全名:
星链-36118(STARLINK-36118)
卫星状态:
在轨 (已飞行185 天)
发射日期:
2025-12-10 UTC
国别 :
美国 (US)
星等 :
--
Orbit Information
数据来源 国际轨道数据 AOE轨道数据
星历时间 2026-06-13T04:28:14+0800
10小时前
查看轨道信息
2026-06-08T03:00:00+0800
5天前
查看轨道信息
半长轴 6950.175km 6950.093km
偏心率 0.0003876 0.0003712
轨道倾角 70.000° 69.999°
近地点辐角 269.937° 281.118°
升交点赤经 214.461° 227.223°
平近点角 90.135° 146.322°
近地点 569.344km 569.376km
远地点 574.732km 574.536km
周期 96.107分钟 96.105分钟
每日圈数 14.983358 14.983624
Detailed Information
固有亮度:
5
最大亮度:
2.5
卫星平台:
Starlink V1.0
覆盖范围:
全球
运营商:
太空探索技术公司
运营商所在国:
美国
制造商(研发单位):
太空探索技术公司
制造商所在国:
美国
使用方式:
暂无
Satellite Introduction
Starlink 计划是 SpaceX 推出的全球卫星互联网项目,通过发射低轨道卫星,为全球尤其是偏远地区提供高速、低延迟的互联网服务。自 2019 年起,Starlink 已部署数千颗卫星,旨在缩小全球数字鸿沟,推动互联网普及。该项目还为军事、航空等行业提供通信支持,带来广泛经济效益。
2D Orbit Map
3D Orbit Map
Orbit Altitude Analysis Chart
Orbit Inclination Analysis Chart
Orbit Comprehensive Analysis Chart
View Comprehensive Chart